Find Starlink 3898

NORAD ID: 52458 Int'l Des: 2022-049 Owner: SPXS Country: US Constellation: starlink operational
LEOCIRCULAR

リアルタイム位置

3D地球を読み込み中...

Starlink 3898について

説明を読み込み中...

次回通過

Passes for default location (London). Set your location on the main map for personalized predictions.

高度履歴

Loading altitude history...

軌道要素

1 52458U 22049H 26123.40510405 -.00000130 00000-0 99176-5 0 9996
2 52458 53.2178 183.4944 0001268 94.8538 265.2599 15.08837681220378
Epoch: May 3, 2026 • Age: 7 hours

現在のステータス

高度 552.1 km
速度 7.59 km/s
衛星直下点 -36.48°S, 82.43°W
打ち上げ日 May 6, 2022
運用期間 3.9 years
タイプ internet

技術仕様

分類 Payload
質量 297.00 kg
乾燥質量 220.00 kg
総質量 297.00 kg
長さ 0.20 m
直径 2.80 m
スパン 9.00 m
形状 Box + pan
製造者 SPXS
バスタイプ Starlink
フェーズステータス In Orbit
所有者/国 SPXS/US

Most Searched